"Pseudo-MPEC" for P212fy4

Created 2020 Jul 11 11:07:20 UT using Find_Orb

Click here for an explanation of pseudo-MPECs

 
 Astrometry: 
     P212fy4  C2010 09 03N(=0VgvVt8K4DCdHJGmDMXvZb01,tM4#jD3Wti+fos0l^2_Y:28;F51
     P212fy4  C2010 09 03cLWs]cG1w$Uu7go[r5*lyv*2lik-V]?0YlGBmX?rh:cUcDMRNsQ$F51
     P212fy4  C2010 09 03#=qm/XIFZB09hX5[j.SXH=3ea;=j4HH8fs_OQbu1^,JLd9-TGagIF51
     P212fy4  C2010 09 03X4so+=^.fPt_5I7Qx5*'aH@nWh/D7Ax;HeX,sx\m^qpOoQ7S2xVSF51
     P212fy4  C2012 02 09F3A012Qc8l1$%=Q#yy;JoDLvcLb;(;o6LIWi;J!?)rq,rpHB?lo8F51
     P212fy4  C2012 02 09B2dAstrometry_NFD;7pA:MdUQ?O48A0JC,iiU[fByKpE%n`pd[0F51
     P212fy4  C2012 05 09k@w?o1Wo,A?ONbs]x9%wdOCCC]:a?$S?D*89;pbHk[QsD$Wv=6s[F51
     P212fy4  C2012 05 14f%cT?KsCXlhb^[W.DY%eM#i*y-usB;iG$wfOJda,#Ug[c1nck3knF51
     P212fy4  C2012 05 14#OHdJu,eTjtsf^5]redacted;D882M!wv?h/072__PdZ]ORksn?GF51
     P212fy4  C2016 12 13[X\t04e2x*-nk@.Pprd-G=RuerBFP$RR(gTnSRx-`GyU)PMn8tejF51
     P212fy4  C2017 03 07IPbkQloIEHRf?URLoy%uT/%'WqVBb%L$qWq@[phg\Eg!T?'I?-xMF51
     P212fy4  C2017 03 07WUMOeIkDOo;-@6B6X/LWP'1o/4hp2fjK9s6bdZ73PxT@@Dx)qVYxF51
     P212fy4  C2017 03 07A)aVqWhgC286_(xIcj7mBEg=ieF:uZm=cTs4f;c(ngwRk:v(a?MNF51
     P212fy4  C2017 03 07\p9\15X,Yf%nRtJppj;5Uy=jjT:^6%MS]YfJ8ZV2*Li#v3yHNxeDF51
     P212fy4  C2017 04 16p/5JIM:)Gf34jKH!7-'0$9NWaV/!%ij)m=wv=EbPY-U[.lhisxmfF51
     P212fy4  C2017 04 16'J(]Y.click88R(uEEsA]FQj!2RHUBASia4niLMRd@*G;OFhJc,-F51
     P212fy4  C2017 04 16c7x?$*gYLbfp#Udm'kyE1)F'2mo\0VCMGulK3^,OKSZfF;XE`C(aF51
     P212fy4  C2017 04 16JnTt*PMkQI^#)Ka5!flTFXT;jS45=8)q2g5:Zn=rKFD2\ySNSS`aF51
     P212fy4  C2017 06 06oQnK?)hWf9DS(`mb.1[Y1YFmXyue,6L!gt`#n=iaavii,0TADfj3F51
     P212fy4  C2018 12 202CcwOy#+@w1TZwCu9se;q%ql#7lm$$jgUtfX%`/jfc$d`#Y?rujQF51
     P212fy4  C2018 12 20F\U]N,m)agJsF0\6wEo;+or4D9Xu`:*wh-9NTwiAGAWxW.CI(OuFF51
     P212fy4  C2018 12 20c?9u;y5EQW,D+`At[hjh4.1:2mj-9-MS)B,A7vN\[h#0JFLFi:.TF51
     P212fy4  C2018 12 20U@Hy(;,UhereHiQ/brF8F(s5`)9,^e,M:[55]4=ytL!#0OWv9keyF51
     P212fy4  C2019 01 15O$_3Ck:#`u8O3l2UrgsOxS$/qTsVkw;$Aax!n7P'qvmnZyw2RUu#F51
     P212fy4  C2019 01 15dR@].e[#jVbT?0Eo7qE^w9forsQj_]F[;0g[Gu\Rj8q-Gj=F:/q_F51
     P212fy4  C2019 01 15moS@C]C;x-(3UW47/X*Ze+%]+?l#$9LW4U:cR/`7OoH=,1Pjl;OqF51
     P212fy4  C2019 01 15R[jx8nlD5tag)#'@-vh$]yT'EJWpl`U^/GViMXG;E*s'J#l*:E_BF51
     P212fy4  C2020 06 28EcS;eEV@]eA9.H9fo.ey'F#-JIlo+`:n9/38eTu*u4lD'2m6RGqxF52
     P212fy4  C2020 06 28$YNKAwV[k$O7g@E=$u+q?3]f#5gt4FS6tXWKh9lhp^/j)Lo$X@wEF52
     P212fy4  C2020 06 28#9_PM+^cYu*_h+Vqi?aMF0Q$P)#.G%G`/NlmkKd@0I.0T'x^CK*-F52
     P212fy4  C2020 06 28Vb8_eF`DG!SumG@rea(4I9Bht@LqE0%r=;7=V5dWBexplanationF52
     P212fy4 KC2020 06 299JC3B.t%BDef8+l0Qi-N`He#XTA5vZ9@m6NB;q@Y6,Kux5X3(6GAL01
     P212fy4 KC2020 06 29n!b^wvQqDgFf\q`;-lA\D0cDiPa@M]5(yMYv$Q@lQ`NHFD/l?k6)L01
     P212fy4 KC2020 06 29.4r_:4%AqnIpu(lYfF0N2LArEg.OOv!h65HW,#l/IFBjlSpt?QGaL01
     P212fy4 KC2020 06 29IF(2uWbwFy2n0sdkv0TyVPiH):w#kxnDFZ@WCqWv]%`VDQRT_,16L01
     P212fy4 KC2020 06 29u3si0vZ.:)-:c'r`x)\5/ClSNxa4*r$Z`wIpN*Yhgf)*GUkE^'4GH21
     P212fy4 KC2020 06 29$TSYAchyCNvmE$QXmxPE_mDwuXES9S`ro'58ZYf1e51C()u2+@KyH21
     P212fy4 KC2020 06 29dINCH'6!B.KICc^VOo\o*GlgPhy\.K5sN=pvx,w@nHD71(H;w^d'H21
     P212fy4 KC2020 06 29,VH\DrSMaU$PQW\(w*Quu#C1T(u6hR^Jv`w)g8/Bq_sNuV%%-!U#H21
     P212fy4 ^C2020 06 29.26569717 58 19.120+13 17 45.55   ~6T77 22.10GVNEOCP568
     P212fy4 ^C2020 06 29.26759817 58 18.979+13 17 44.38   ~6T77 21.92GVNEOCP568
     P212fy4  C2020 07 11Xxi3Zd#HpaMGJPib`2Yy_aO;g.BcZbIgBgjk^R+TB[w^ucrO#Y$rF52
     P212fy4  C2020 07 112uBv/C8X04E!Y]-Qh;s$82y*(%=,w?L`o[]amHum#UP0,s%Zw=lPF52
     P212fy4  C2020 07 11sPYRme*1^VL-l/n9Wj,Zy7D_0I?-Ae7n;pG/6QtNaF\-0PGAt-VsF52

Station data:
(568) Mauna Kea  (N19.826116 W155.472200)  US/Hawaii.
(F51) Pan-STARRS 1, Haleakala  (N20.707235 W156.255910)  US/Hawaii.
   Observers N. Primak, A. Schultz, S. Watters, J. Thiel, T. Goggia. Measurer
   PS1 Science Consortium. 1.8-m Ritchey-Chrétien + CCD.
(F52) Pan-STARRS 2, Haleakala  (N20.707384 W156.255910)  US/Hawaii. 1.8-m
   Ritchey-Chrétien + CCD.
(H21) Astronomical Research Observatory, Westfield  (N39.483057 W87.968270)
   US/Illinois. 0.76-m f/3.0 astrograph + CCD.
(L01) Višnjan Observatory, Tičan  (N45.290900 E13.749300)  Croatia.
   Observers K. Korlević, E. Pettarin. Measurer E. Pettarin. 1.0-m f/2.9
   reflector + CCD.

Orbital elements:  P212fy4
   Perihelion 2021 May 17.992678 +/- 0.000182 TT = 23:49:27 (JD 2459352.492678)
Epoch 2020 Jul 11.0 TT = JDT 2459041.5   Earth MOID: 0.7465   AutoNEOCP
M 240.05356414 +/- 0.00006          (J2000 ecliptic)
n   0.38568893 +/- 1.03e-8          Peri.  262.90858 +/- 0.00007
a   1.86915188 +/- 3.34e-8          Node   144.05545 +/- 0.000047
e   0.1316495 +/- 1.85e-7           Incl.   24.59132 +/- 0.000016
P   2.56/933.38d           H 19.2   G  0.15   U  0.5  
q 1.62307895 +/- 3.44e-7    Q 2.11522482 +/- 3.51e-7
From 44 observations 2010 Sept. 3-2020 July 11; mean residual 0".29
Residuals in arcseconds: 
100903 F51  .12+  .10-    170416 F51  .22-  .39+    200628 F52  .23+  .28+    
100903 F51  .10+  .11-    170416 F51  .26+  .01-    200629 L01  .15-  .47+    
100903 F51  .01-  .17-    170416 F51  .01+  .05+    200629 L01  .01-  .66+    
100903 F51  .06+  .07-    170606 F51  .07+  .42-    200629 L01  .63+  .04-    
120209 F51  .66-  .67-    181220 F51  .31-  .34+    200629 L01  .18+  .20-    
120209 F51  1.4-  .52+    181220 F51  .08+  .09-    200629 H21  .14-  .16-    
120509 F51  .04-  .30-    181220 F51  .40+  .26-    200629 H21  .12-  .41-    
120514 F51  .11+  .15-    181220 F51  .01+  .44-    200629 H21  .29-  .10-    
120514 F51  .47+  .44+    190115 F51  .07-  .02-    200629 H21  .20-  .16-    
161213 F51  .13-  .07+    190115 F51  .06-  .13-    200629 568  .15-  .03-    
170307 F51  .48+  .41-    190115 F51  .07-  .12+    200629 568  .16-  .00     
170307 F51  .33+  .10+    190115 F51  .14-  .01+    200711 F52  .03-  .01-    
170307 F51  .07-  .03+    200628 F52  .11-  .08-    200711 F52  .15+  .02+    
170307 F51  .41+  .14-    200628 F52  .07-  .09-    200711 F52  .02-  .02+    
170416 F51  .26+  .18+    200628 F52  .07-  .04+    

Ephemerides (geocentric):
Date (UTC) HH   RA              Dec         delta   r     elong  mag " sig PA
---- -- -- --  -------------   -----------  ------ ------ -----  --- ---- ---
2020 07 11 11  17 44 44.109   +10 34 22.26  1.1300 2.0134 139.4 22.0 .028  43
2020 07 11 12  17 44 41.618   +10 33 42.48  1.1301 2.0133 139.3 22.0 .028  43
2020 07 11 13  17 44 39.130   +10 33 02.67  1.1302 2.0133 139.3 22.0 .028  43
2020 07 11 14  17 44 36.643   +10 32 22.81  1.1302 2.0132 139.3 22.0 .028  43
2020 07 11 15  17 44 34.160   +10 31 42.92  1.1303 2.0132 139.3 22.0 .028  43
2020 07 11 16  17 44 31.679   +10 31 02.99  1.1304 2.0131 139.3 22.0 .028  43
2020 07 11 17  17 44 29.200   +10 30 23.03  1.1304 2.0131 139.2 22.0 .028  43
2020 07 11 18  17 44 26.724   +10 29 43.02  1.1305 2.0130 139.2 22.0 .028  43
2020 07 11 19  17 44 24.251   +10 29 02.98  1.1306 2.0130 139.2 22.0 .028  43
2020 07 11 20  17 44 21.780   +10 28 22.90  1.1307 2.0129 139.2 22.0 .028  43
2020 07 11 21  17 44 19.312   +10 27 42.79  1.1307 2.0129 139.2 22.0 .028  43
2020 07 11 22  17 44 16.846   +10 27 02.63  1.1308 2.0128 139.2 22.0 .028  43
2020 07 11 23  17 44 14.383   +10 26 22.44  1.1309 2.0128 139.1 22.0 .028  43
2020 07 12 00  17 44 11.923   +10 25 42.22  1.1309 2.0127 139.1 22.0 .028  43
2020 07 12 01  17 44 09.465   +10 25 01.95  1.1310 2.0127 139.1 22.0 .028  43
2020 07 12 02  17 44 07.009   +10 24 21.65  1.1311 2.0126 139.1 22.0 .028  43
2020 07 12 03  17 44 04.556   +10 23 41.31  1.1312 2.0126 139.1 22.0 .028  43
2020 07 12 04  17 44 02.106   +10 23 00.94  1.1312 2.0125 139.0 22.0 .028  43
2020 07 12 05  17 43 59.659   +10 22 20.52  1.1313 2.0124 139.0 22.0 .028  43
2020 07 12 06  17 43 57.214   +10 21 40.07  1.1314 2.0124 139.0 22.0 .028  43
2020 07 12 07  17 43 54.772   +10 20 59.59  1.1314 2.0123 139.0 22.0 .028  43
2020 07 12 08  17 43 52.332   +10 20 19.06  1.1315 2.0123 139.0 22.0 .028  43
2020 07 12 09  17 43 49.895   +10 19 38.50  1.1316 2.0122 139.0 22.0 .028  43
2020 07 12 10  17 43 47.460   +10 18 57.91  1.1317 2.0122 138.9 22.0 .028  43
2020 07 12 11  17 43 45.029   +10 18 17.27  1.1317 2.0121 138.9 22.0 .028  43
2020 07 12 12  17 43 42.599   +10 17 36.61  1.1318 2.0121 138.9 22.0 .028  43
2020 07 12 13  17 43 40.173   +10 16 55.90  1.1319 2.0120 138.9 22.0 .028  43
2020 07 12 14  17 43 37.749   +10 16 15.16  1.1320 2.0120 138.9 22.0 .028  43
2020 07 12 15  17 43 35.328   +10 15 34.38  1.1321 2.0119 138.8 22.0 .028  43
2020 07 12 16  17 43 32.909   +10 14 53.56  1.1321 2.0119 138.8 22.0 .028  43
2020 07 12 17  17 43 30.494   +10 14 12.71  1.1322 2.0118 138.8 22.0 .028  43
2020 07 12 18  17 43 28.080   +10 13 31.83  1.1323 2.0118 138.8 22.0 .028  43
2020 07 12 19  17 43 25.670   +10 12 50.90  1.1324 2.0117 138.8 22.0 .028  43
2020 07 12 20  17 43 23.262   +10 12 09.94  1.1324 2.0117 138.7 22.0 .028  43
2020 07 12 21  17 43 20.857   +10 11 28.95  1.1325 2.0116 138.7 22.0 .028  43
2020 07 12 22  17 43 18.454   +10 10 47.92  1.1326 2.0116 138.7 22.0 .028  43
2020 07 12 23  17 43 16.055   +10 10 06.85  1.1327 2.0115 138.7 22.0 .028  43
2020 07 13 00  17 43 13.658   +10 09 25.75  1.1328 2.0115 138.7 22.0 .028  43
2020 07 13 01  17 43 11.263   +10 08 44.61  1.1328 2.0114 138.7 22.0 .028  43
2020 07 13 02  17 43 08.872   +10 08 03.43  1.1329 2.0114 138.6 22.0 .028  43
2020 07 13 03  17 43 06.483   +10 07 22.22  1.1330 2.0113 138.6 22.0 .028  43
2020 07 13 04  17 43 04.096   +10 06 40.98  1.1331 2.0112 138.6 22.0 .028  43
2020 07 13 05  17 43 01.713   +10 05 59.70  1.1332 2.0112 138.6 22.0 .028  43
2020 07 13 06  17 42 59.332   +10 05 18.38  1.1332 2.0111 138.6 22.0 .028  43
2020 07 13 07  17 42 56.954   +10 04 37.03  1.1333 2.0111 138.5 22.0 .028  43
2020 07 13 08  17 42 54.579   +10 03 55.64  1.1334 2.0110 138.5 22.0 .028  43
2020 07 13 09  17 42 52.206   +10 03 14.22  1.1335 2.0110 138.5 22.0 .028  43
2020 07 13 10  17 42 49.836   +10 02 32.76  1.1336 2.0109 138.5 22.0 .028  43